User: anonymous   Login
Location: Columbia
(38.9520°N, 92.3340°W)
Time: 04:12:59
(UTC-05:00)
Language:

Iridium 52 - Orbit

View from above orbital plane
View from above orbital plane
View from above satellite
View from above satellite

Ground track
Ground track

The orbit data is extracted from the following two-line orbital elements,

1 25169U 98010A   16145.52154207  .00000002  00000-0 -63569-5 0  9991
2 25169  86.3962 152.8605 0002288  84.1683 275.9773 14.34217657956073
Epoch (UTC): 24 May 2016 12:31:01
Eccentricity: 0.0002288
inclination: 86.3962°
perigee height: 776 km
apogee height: 779 km
right ascension of ascending node: 152.8605°
argument of perigee: 84.1683°
revolutions per day: 14.34217657
mean anomaly at epoch: 275.9773°
orbit number at epoch: 95607

The dashed part of the orbit path shows where the satellite is in the earth's shadow,  

DLR